Hourly Weather Le Perreux-sur-Marne

Today, 24 January, Sunday

Time Temperature Precipitation Wind Pressure Humidity
00:00 +1°C° 0 mm 2 mps 743 mmHg 88%
01:00 +1°C° 0 mm 2 mps 743 mmHg 88%
02:00 +1°C° 0 mm 2 mps 743 mmHg 88%
03:00 -1°C° 0 mm 2 mps 743 mmHg 88%
04:00 -1°C° 0 mm 2 mps 743 mmHg 87%
05:00 +1°C° 0 mm 2 mps 743 mmHg 87%
06:00 +1°C° 0 mm 2 mps 743 mmHg 86%
07:00 0°C° 0.5 mm 3 mps 742 mmHg 88%
08:00 -1°C° 0.5 mm 4 mps 742 mmHg 91%
09:00 -1°C° 0.5 mm 4 mps 742 mmHg 93%
10:00 0°C° 0.6 mm 4 mps 741 mmHg 91%
11:00 0°C° 0.6 mm 4 mps 741 mmHg 89%
12:00 +1°C° 0.6 mm 4 mps 741 mmHg 87%
13:00 +1°C° 0.1 mm 4 mps 741 mmHg 84%
14:00 +1°C° 0.1 mm 5 mps 741 mmHg 81%
15:00 +2°C° 0.1 mm 5 mps 741 mmHg 78%
16:00 +1°C° 0.1 mm 5 mps 741 mmHg 80%
17:00 0°C° 0.1 mm 5 mps 742 mmHg 83%
18:00 -1°C° 0.1 mm 6 mps 742 mmHg 86%
19:00 -1°C° 0 mm 6 mps 743 mmHg 86%
20:00 -2°C° 0 mm 6 mps 744 mmHg 85%
21:00 -2°C° 0 mm 6 mps 744 mmHg 85%
22:00 -1°C° 0 mm 5 mps 745 mmHg 86%
23:00 -2°C° 0 mm 4 mps 746 mmHg 86%

Tomorrow, 25 January, Monday

Time Temperature Precipitation Wind Pressure Humidity
00:00 -1°C° 0 mm 3 mps 747 mmHg 87%
01:00 -1°C° 0 mm 3 mps 748 mmHg 89%
02:00 -1°C° 0 mm 2 mps 748 mmHg 90%
03:00 -1°C° 0 mm 2 mps 749 mmHg 92%
04:00 -1°C° 0.1 mm 3 mps 749 mmHg 91%
05:00 -1°C° 0.1 mm 3 mps 749 mmHg 90%
06:00 -2°C° 0.1 mm 4 mps 749 mmHg 90%
07:00 -1°C° 0.2 mm 4 mps 750 mmHg 86%
08:00 -1°C° 0.2 mm 5 mps 750 mmHg 83%
09:00 0°C° 0.2 mm 5 mps 750 mmHg 79%
10:00 +1°C° 0 mm 6 mps 750 mmHg 76%
11:00 +2°C° 0 mm 6 mps 751 mmHg 73%
12:00 +3°C° 0 mm 6 mps 751 mmHg 70%
13:00 +3°C° 0.1 mm 6 mps 751 mmHg 71%
14:00 +3°C° 0.1 mm 5 mps 751 mmHg 72%
15:00 +3°C° 0.1 mm 5 mps 751 mmHg 73%
16:00 +3°C° 0 mm 4 mps 752 mmHg 76%
17:00 +3°C° 0 mm 4 mps 752 mmHg 80%
18:00 +1°C° 0 mm 4 mps 753 mmHg 84%
19:00 +1°C° 0 mm 3 mps 753 mmHg 85%
20:00 +1°C° 0 mm 3 mps 754 mmHg 86%
21:00 +1°C° 0 mm 3 mps 754 mmHg 87%
22:00 +1°C° 0 mm 3 mps 754 mmHg 87%
23:00 +1°C° 0 mm 2 mps 755 mmHg 86%

Day after tomorrow, 26 January, Tuesday

Time Temperature Precipitation Wind Pressure Humidity
00:00 +1°C° 0 mm 2 mps 755 mmHg 86%
01:00 +1°C° 0 mm 2 mps 755 mmHg 87%
02:00 +1°C° 0 mm 2 mps 755 mmHg 87%
03:00 +1°C° 0 mm 2 mps 755 mmHg 88%
04:00 +1°C° 0 mm 2 mps 755 mmHg 90%
05:00 +1°C° 0 mm 2 mps 756 mmHg 91%
06:00 +1°C° 0 mm 2 mps 756 mmHg 93%
07:00 +1°C° 0 mm 2 mps 756 mmHg 92%
08:00 +2°C° 0 mm 2 mps 756 mmHg 92%
09:00 +2°C° 0 mm 2 mps 756 mmHg 91%
10:00 +2°C° 0 mm 3 mps 756 mmHg 90%
11:00 +3°C° 0 mm 3 mps 756 mmHg 88%
12:00 +3°C° 0 mm 4 mps 755 mmHg 86%
13:00 +4°C° 0.1 mm 4 mps 755 mmHg 86%
14:00 +4°C° 0.1 mm 4 mps 754 mmHg 87%
15:00 +4°C° 0.1 mm 4 mps 754 mmHg 87%
16:00 +3°C° 1.4 mm 5 mps 753 mmHg 88%
17:00 +3°C° 1.4 mm 5 mps 753 mmHg 89%
18:00 +3°C° 1.4 mm 5 mps 752 mmHg 90%
19:00 +5°C° 0.2 mm 5 mps 752 mmHg 90%
20:00 +5°C° 0.2 mm 5 mps 752 mmHg 91%
21:00 +6°C° 0.2 mm 5 mps 752 mmHg 91%
22:00 +6°C° 0 mm 5 mps 753 mmHg 92%
23:00 +6°C° 0 mm 5 mps 753 mmHg 92%

27 January, Wednesday

Time Temperature Precipitation Wind Pressure Humidity
00:00 +7°C° 0 mm 4 mps 753 mmHg 93%
01:00 +7°C° 0 mm 4 mps 753 mmHg 93%
02:00 +6°C° 0 mm 5 mps 754 mmHg 93%
03:00 +6°C° 0 mm 5 mps 754 mmHg 92%
04:00 +6°C° 0 mm 4 mps 755 mmHg 93%
05:00 +5°C° 0 mm 3 mps 755 mmHg 93%
06:00 +5°C° 0 mm 3 mps 755 mmHg 93%
07:00 +5°C° 0 mm 3 mps 756 mmHg 93%
08:00 +5°C° 0 mm 3 mps 756 mmHg 93%
09:00 +7°C° 0 mm 3 mps 757 mmHg 93%
10:00 +6°C° 0 mm 4 mps 757 mmHg 91%
11:00 +7°C° 0 mm 4 mps 757 mmHg 89%
12:00 +7°C° 0 mm 4 mps 757 mmHg 87%
13:00 +8°C° 0 mm 4 mps 757 mmHg 85%
14:00 +9°C° 0 mm 3 mps 757 mmHg 84%
15:00 +9°C° 0 mm 3 mps 756 mmHg 82%
16:00 +9°C° 0 mm 3 mps 756 mmHg 85%
17:00 +7°C° 0 mm 4 mps 756 mmHg 88%
18:00 +7°C° 0 mm 4 mps 756 mmHg 91%
19:00 +7°C° 0 mm 5 mps 756 mmHg 91%
20:00 +7°C° 0 mm 5 mps 755 mmHg 91%
21:00 +7°C° 0 mm 6 mps 755 mmHg 91%
22:00 +7°C° 2 mm 6 mps 754 mmHg 91%
23:00 +8°C° 2 mm 7 mps 753 mmHg 92%

28 January, Thursday

Time Temperature Precipitation Wind Pressure Humidity
00:00 +8°C° 2 mm 7 mps 752 mmHg 93%
01:00 +9°C° 0.8 mm 7 mps 752 mmHg 92%
02:00 +9°C° 0.8 mm 7 mps 751 mmHg 91%
03:00 +10°C° 0.8 mm 7 mps 751 mmHg 89%
04:00 +9°C° 0.1 mm 6 mps 751 mmHg 88%
05:00 +9°C° 0.1 mm 6 mps 751 mmHg 86%
06:00 +8°C° 0.1 mm 6 mps 751 mmHg 85%
07:00 +8°C° 0.1 mm 6 mps 751 mmHg 84%
08:00 +8°C° 0.1 mm 7 mps 751 mmHg 83%
09:00 +9°C° 0.1 mm 7 mps 751 mmHg 83%
10:00 +9°C° 0.3 mm 8 mps 751 mmHg 79%
11:00 +10°C° 0.3 mm 8 mps 751 mmHg 76%
12:00 +10°C° 0.3 mm 8 mps 751 mmHg 72%
13:00 +11°C° 0.1 mm 8 mps 751 mmHg 69%
14:00 +11°C° 0.1 mm 7 mps 751 mmHg 67%
15:00 +11°C° 0.1 mm 7 mps 752 mmHg 64%
16:00 +10°C° 0 mm 6 mps 752 mmHg 69%
17:00 +9°C° 0 mm 5 mps 753 mmHg 73%
18:00 +8°C° 0 mm 4 mps 753 mmHg 78%

29 January, Friday

Time Temperature Precipitation Wind Pressure Humidity
Show more

We Need Your Consent

Meteoprog and our Service Providers may store and access personal data such as cookies, device identifiers or other similar technologies on your device and process such data to personalise content and ads, as well as provide social media features and to analyse the traffic.

  • Store and/or access information on your device

    Cookies, device identifiers or other information can be stored or accessed on your device for the purposes indicated above.

  • Personalised ads and content, ad and content measurement, audience insights, and products development

    Ads and content can be personalised based on a profile. More data can be added to better personalise ads and content. Ad and content performance can be measured. Insights about the audience who saw the ads and content can be derived. Such data can be used to develop or improve user’s experience, systems and software.

By clicking ‘I Agree’ you will allow the use of indicated cookies, device identifiers, web beacons or other similar technologies. Your settings can be changed in the browser on your device.

For certain purposes, legitimate interests may be relied on, rather than consent. You can read more about this in our Privacy and Cookie Policy.